Estación Meteorológica Peña el Pijo (Robertgarden) [ 07/15/20 06:08:23 CEST ]

Fecha Hora Presion(HPa) Temp (°C) Humedad % Rocio (°C) Viento ( m/s) Direccion Lluvia 1Hora(mm) Lluvia 24H(mm) LLuvia Total(mm)
2020-May-13 01:09:12 999.300 - - - - W     39.88
2020-May-13 02:09:21 999.200 - - - - W     39.88
2020-May-13 03:39:13 998.500 - - - - W     39.88
2020-May-13 04:09:22 998.500 - - - - W     39.88
2020-May-13 05:09:09 998.500 - - - - W     39.88
2020-May-13 06:09:01 998.200 - - - - W     39.88
2020-May-13 07:09:17 998.300 - - - - W     39.88
2020-May-13 08:09:34 998.600 - - - - W     39.88
2020-May-13 09:09:39 998.500 - - - - W     39.88
2020-May-13 10:09:57 999.100 - - - - W     39.88
2020-May-13 11:09:32 999.300 - - - - W     39.88
2020-May-13 12:09:23 999.400 - - - - W     39.88
2020-May-13 13:09:16 998.900 - - - - W     39.88
2020-May-13 14:09:27 998.200 - - - - W     39.88
2020-May-13 15:09:20 997.400 - - - - W     39.88
2020-May-13 16:09:24 996.800 - - - - W     39.88
2020-May-13 17:09:06 996.500 - - - - W     39.88
2020-May-13 18:08:46 996.400 - - - - W     39.88
2020-May-13 19:09:17 996.300 - - - - W     39.88
2020-May-13 20:09:49 996.400 - - - - W     39.88
2020-May-13 21:09:04 996.700 - - - - W     39.88
2020-May-13 22:09:07 996.700 - - - - W     39.88
2020-May-13 23:09:18 996.900 - - - - W     39.88

Temperatura Máxima:    Temperatura Mínima:
Presión Máxima:999.400 Hpa    Presión Mínima:996.300 Hpa


Volver